Location: ??????
(55.7522°N, 37.6156°E)
Time: 04:19:30
(UTC+00:00)

Cosmos 1862 Rocket - Pass Details

Date: 14 June 2025
Orbit: 597 x 628 km, 82.5° (Epoch: 11 July)

Event Time Altitude Azimuth Distance (km) Brightness Sun altitude
Exits shadow 20:34:31 12° 185° (S) 1,839 5.4 -10.1°
Maximum altitude 20:38:33 79° 100° (E) 642 3.6 -10.2°
Drops below altitude 10° 20:42:58 10° 14° (NNE) 1,996 7.3 -10.3°
Sets 20:45:12 0° 13° (NNE) 2,901 8.4 -10.4°
